Flag for U.S.A. Weather past 2 weeks in Augusta, Maine, U.S.A.

Now
19 °F

Clear.


Feels Like: 12 °F
Forecast: 19 / 38 °F
Wind: 5 mph from West

Location: Augusta State Airport

Current Time: Mar 29, 2015 at 7:43:25 AM

Latest Report: Mar 29, 2015 at 6:53 AM


Visibility: 10 mi

Pressure: 30.11 "Hg

Humidity: 43%

Dew point: 0 °F

Location of AugustaLocation

Historic Weather in Augusta — Graph

°F

Augusta temperature yesterday

Maximum temperature yesterday: 37 °F (at 4:53 PM)
Minimum temperature yesterday: 27 °F (at 11:53 PM)
Average temperature yesterday: 33 °F

Past Weeks' High & Low Weather Summary

 TemperatureHumidityPressure
High45 °F (Mar 27, 2:53 PM)100% (Mar 26, 6:53 PM)30.40 "Hg (Mar 26, 6:53 PM)
Low7 °F (Mar 23, 5:53 AM)24% (Mar 16, 2:53 PM)29.35 "Hg (Mar 17, 3:53 PM)
Average27 °F59%29.92 "Hg
* Reported Mar 14 5:53 AM — Mar 29 5:53 AM, Augusta, Weather by CustomWeather, © 2015

Note: Actual official high and low records may vary slightly from our data, if they occured in-between our weather recording intervals... More about our weather records

Advertising

Augusta weather history for previous 24 hours

 ConditionsComfort  
Time TempWeatherWind HumidityBarometerVisibility
5:53 AM
Sun, Mar 29
21 °FClear.No wind38%30.09 "Hg10 mi
4:53 AM21 °FClear.7 mph38%30.06 "Hg10 mi
3:53 AM23 °FClear.9 mph35%30.05 "Hg10 mi
2:53 AM23 °FClear.9 mph40%30.03 "Hg10 mi
1:53 AM25 °FClear.9 mph37%30.03 "Hg10 mi
12:53 AM26 °FClear.10 mph42%30.02 "Hg10 mi
11:53 PM
Sat, Mar 28
27 °FClear.14 mph46%30.00 "Hg10 mi
10:53 PM29 °FClear.13 mph47%29.98 "Hg10 mi
9:53 PM31 °FClear.13 mph47%29.94 "Hg10 mi
8:53 PM33 °FClear.14 mph43%29.89 "Hg10 mi
7:53 PM35 °FPassing clouds.12 mph44%29.85 "Hg10 mi
6:53 PM36 °FPartly sunny.10 mph42%29.81 "Hg10 mi
5:53 PM37 °FPassing clouds.14 mph41%29.79 "Hg10 mi
4:53 PM37 °FOvercast.15 mph42%29.77 "Hg10 mi
3:53 PM36 °FMostly cloudy.15 mph46%29.78 "Hg10 mi
2:53 PM34 °FPassing clouds.10 mph50%29.78 "Hg10 mi
1:53 PM33 °FOvercast.14 mph56%29.81 "Hg10 mi
1:02 PM31 °FMostly cloudy.13 mph64%29.82 "Hg9 mi
11:53 AM29 °FLight snow. Mostly cloudy.14 mph75%29.84 "Hg1 mi
10:53 AM30 °FOvercast.15 mph61%29.85 "Hg10 mi
9:53 AM30 °FMostly cloudy.14 mph56%29.85 "Hg9 mi
8:53 AM30 °FOvercast.13 mph59%29.84 "Hg10 mi
7:53 AM30 °FMostly cloudy.14 mph56%29.83 "Hg10 mi
Weather by CustomWeather, © 2015

See weather overviewHow to use our weather pages